[Iaude] MPEC L106: 2024 LU2 [a=1.51,e=0.56,i=6.1,H=24.7]
    mpec at cfa.harvard.edu 
    mpec at cfa.harvard.edu
       
    Mon Jun 10 13:04:26 EDT 2024
    
    
  
M.P.E.C. 2024-L106                                Issued 2024 June 10, 17:02 UT
     The Minor Planet Electronic Circulars contain information on unusual
         minor planets, routine data on comets and natural satellites,
         and occasional editorial announcements.  They are published
    on behalf of Division F of the International Astronomical Union by the
          Minor Planet Center, Smithsonian Astrophysical Observatory,
                          Cambridge, MA 02138, U.S.A.
			  
             Prepared using the Tamkin Foundation Computer Network
                              MPC at CFA.HARVARD.EDU
            URL https://www.minorplanetcenter.net/    ISSN 1523-6714
                                    2024 LU2                                    
Observations:
     K24L02U  C2024 06 01.43398216 56 35.653-13 09 32.77         21.48GVEL106F51
     K24L02U  C2024 06 01.44537316 56 32.585-13 10 06.59         21.52GVEL106F51
     K24L02U  C2024 06 01.45681416 56 29.493-13 10 41.03         21.43GVEL106F51
     K24L02U  C2024 06 01.46812416 56 26.463-13 11 13.51         22.00GVEL106F51
     K24L02U* C2024 06 06.40072516 39 58.483-16 25 29.86         22.31wXEL106F52
     K24L02U  C2024 06 06.40869816 39 57.049-16 25 44.93         22.42wXEL106F52
     K24L02U  C2024 06 06.41665916 39 55.650-16 25 59.74         21.97wXEL106F52
     K24L02U  C2024 06 06.42459516 39 54.231-16 26 14.76         22.14wXEL106F52
     K24L02U KC2024 06 07.35431 16 37 30.20 -16 54 20.0                VEL106291
     K24L02U KC2024 06 07.36554 16 37 28.38 -16 54 40.0                VEL106291
     K24L02U 3C2024 06 09.50727616 32 38.423-17 51 36.96         23.05GVEL106T14
     K24L02U 3C2024 06 09.50848316 32 38.247-17 51 38.66         22.26GVEL106T14
     K24L02U 3C2024 06 09.50969116 32 38.117-17 51 40.46         22.66GVEL106T14
Observer details:
291 LPL/Spacewatch II.  Observer R. A. Mastaler.  1.8-m f/2.7 reflector + CCD.
F51 Pan-STARRS 1, Haleakala.  Observers J. Herman, T. Lowe, P. Minguez, A.
    Schultz, I. Smith.  Measurers K. Chambers, T. de Boer, J. Fairlamb, H.
    Gao, M. Huber, C.-C. Lin, E. Magnier, Y. Ramanjooloo, R. Wainscoat, R.
    Weryk.  1.8-m Ritchey-Chretien + CCD.
F52 Pan-STARRS 2, Haleakala.  Observers J. Herman, T. Lowe, P. Minguez, A.
    Schultz, I. Smith.  Measurers K. Chambers, T. de Boer, J. Fairlamb, H.
    Gao, M. Huber, C.-C. Lin, E. Magnier, Y. Ramanjooloo, R. Wainscoat, R.
    Weryk.  1.8-m Ritchey-Chretien + CCD.
T14 Canada-France-Hawaii Telescope, Maunakea.  Observers R. Wainscoat, A.
    Acohido, H. Flewelling.  Measurers R. Weryk, R. Wainscoat.  3.6-m f/4.1
    reflector + CCD.
Orbital elements:
2024 LU2                                                 Earth MOID = 0.0368 AU
Epoch 2024 Mar. 31.0 TT = JDT 2460400.5                 Veres                   
M   4.35695              (2000.0)            P               Q                  
n   0.53173435     Peri.   64.10856     -0.84741455     -0.52042185             
a   1.5089432      Node    84.36763     +0.44145624     -0.80064982             
e   0.5623894      Incl.    6.06332     +0.29496604     -0.29685176             
P   1.85           H   24.77          G   0.15           U   9                  
Residuals in seconds of arc
240601 F51  0.1+  0.1+    240606 F52  0.1-  0.0     240609 T14  0.0   0.0
240601 F51  0.1+  0.1+    240606 F52  0.0   0.2+    240609 T14  0.2-  0.0
240601 F51  0.1-  0.5-    240606 F52  0.1-  0.0     240609 T14  0.2+  0.0
240601 F51  0.0   0.3+    240607 291  0.5+  0.6+
240606 F52  0.1+  0.0     240607 291  0.4+  0.1-
Ephemeris:
2024 LU2                 a,e,i = 1.51, 0.56, 6                   q = 0.6603
Date    TT    R. A. (2000) Decl.     Delta      r    Elong.  Phase     V
2024 05 11    22 29 37.6 +38 48 32   0.07761 0.9785    64.0   111.9    23.5
...
2024 05 26    17 33 33.5 -05 30 57   0.1181  1.1209   154.8    22.6    21.5
...
2024 06 03    16 50 33.0 -14 20 47   0.1829  1.1957   171.9     6.9    22.0
...
2024 06 09    16 33 43.8 -17 38 35   0.2382  1.2505   170.1     8.0    22.7
2024 06 10    16 31 40.5 -18 03 07   0.2479  1.2596   169.1     8.8    22.8
2024 06 11    16 29 47.4 -18 25 54   0.2578  1.2686   167.9     9.6    23.0
...
2024 06 17    16 21 25.3 -20 14 09   0.3193  1.3218   160.9    14.5    23.7
...
2024 06 25    16 16 00.4 -21 50 05   0.4079  1.3907   152.4    19.8    24.5
...
2024 07 10    16 16 45.2 -23 40 11   0.5934  1.5131   138.5    26.4    25.7
M. P. C. Staff               (C) Copyright 2024 MPC           M.P.E.C. 2024-L106
    
    
More information about the Iaude
mailing list